Regional Weather Roundup
Issued by NWS

Home | Current Version | Previous Version | Text Only | Print | Product List | Glossary Off
Versions: 1 2 3 4 5 6 7 8 9 10 11 12 13 14 15 16 17 18 19 20 21 22 23 24 25 26 27 28 29 30 31 32 33 34 35 36 37 38 39 40 41 42 43 44 45 46 47 48 49 50

000
ASUS43 KBIS 201059
RWRND

NORTH DAKOTA REGIONAL WEATHER ROUNDUP
NATIONAL WEATHER SERVICE BISMARCK ND
600 AM CDT SAT SEP 20 2014

NOTE: "FAIR" INDICATES FEW OR NO CLOUDS BELOW 12,000 FEET WITH NO
SIGNIFICANT WEATHER AND/OR OBSTRUCTIONS TO VISIBILITY.


NDZ001>003-009>011-017-201200-
NORTHWEST NORTH DAKOTA

CITY           SKY/WX    TMP DP  RH WIND       PRES   REMARKS
WILLISTON      CLOUDY    54  51  90 S5        29.85S
MINOT          CLEAR     54  49  83 SW12      29.80S
$$

NDZ018>021-031>035-040>046-201200-
SOUTHWEST NORTH DAKOTA

CITY           SKY/WX    TMP DP  RH WIND       PRES   REMARKS
BISMARCK       CLEAR     53  51  93 SW3       29.86F
GARRISON         N/A     51  50  96 W5        29.84S
HETTINGER ARPT CLEAR     51  45  79 W7        29.95R
$$

NDZ004>008-012>016-024-026-027-054-201200-
NORTHEAST NORTH DAKOTA

CITY           SKY/WX    TMP DP  RH WIND       PRES   REMARKS
GRAND FORKS    CLEAR     49  48  97 W6        29.77R
DEVILS LAKE    CLEAR     55  48  76 W8        29.77S
$$

NDZ022-023-025-028>030-036>039-047>053-201200-
SOUTHEAST NORTH DAKOTA

CITY           SKY/WX    TMP DP  RH WIND       PRES   REMARKS
FARGO          CLEAR     51  49  92 CALM      29.80R
$$



USA.gov is the U.S. government's official web portal to all federal, state and local government web resources and services.